{"data":{"norad_id":58967,"epoch":"2026-05-25T03:40:06.193344Z","epoch_age_seconds":62122,"freshness":"FRESH","line1":"1 58967U 24031C   26145.15284946 -.00000393  00000+0 -11648-5 0  9993","line2":"2 58967  53.1607 301.2751 0000776 117.1505 242.9575 15.30198044128244","mean_motion":15.30198044,"eccentricity":7.76e-5,"inclination_deg":53.1607,"raan_deg":301.2751,"arg_perigee_deg":117.1505,"mean_anomaly_deg":242.9575,"bstar":-1.1648e-6,"rev_number":12824,"period_min":94.105465998099,"perigee_km":474.68908911518,"apogee_km":475.75273026277,"semimajor_km":6853.357909689,"source":"CELESTRAK","updated_at":"2026-05-25T13:38:18.793257Z"}}